Location: ?�kov
(49.4404°N, 15.1201°E)
Time: 06:01:30
(UTC+00:00)

In-Cosmos 22 Rocket - Pass Details

Date: 07 June 2020
Orbit: 790 x 888 km, 81.2° (Epoch: 04 July)

Event Time Altitude Azimuth Distance (km) Brightness Sun altitude
Exits shadow 01:31:05 11° 196° (SSW) 2,368 5.9 -10.2°
Maximum altitude 01:36:25 77° 283° (WNW) 858 4.2 -9.7°
Drops below altitude 10° 01:41:54 10° 10° (N) 2,417 7.7 -9.2°
Sets 01:44:17 0° 12° (NNE) 3,340 8.6 -8.9°
